Regional Weather Roundup
Issued by NWS Cleveland, OH

Home | Current Version | Previous Version | Text Only | Print | Product List | Glossary On
Versions: 1 2 3 4 5 6 7 8 9 10 11 12 13 14 15 16 17 18 19 20 21 22 23 24 25 26 27 28 29 30 31 32 33 34 35 36 37 38 39 40 41 42 43 44 45 46 47 48 49 50
000
ASUS41 KCLE 290810
RWRCLE
OHIO REGIONAL WEATHER ROUNDUP
NATIONAL WEATHER SERVICE CLEVELAND, OH
300 AM EST SAT NOV 29 2014

NOTE: "FAIR" INDICATES FEW OR NO CLOUDS BELOW 12,000 FEET WITH NO
SIGNIFICANT WEATHER AND/OR OBSTRUCTIONS TO VISIBILITY.

OHZ001>008-015>018-024>027-034-035-043-044-290900-
   NORTHWEST OHIO

CITY           SKY/WX    TMP DP  RH WIND       PRES   REMARKS
DEFIANCE       CLOUDY    33  22  63 S6        30.02S WCI  28
FINDLAY        CLOUDY    33  21  61 SE8       30.03R WCI  26
TOLEDO EXPRESS CLOUDY    31  22  69 CALM      30.03S
TOLEDO EXEC    CLOUDY    31  22  69 SE7       30.05S WCI  24
LIMA           CLOUDY    34  20  56 S13       30.03R WCI  25
$$

OHZ009>014-019>023-028>033-038-089-290900-
   NORTHEAST OHIO

CITY           SKY/WX    TMP DP  RH WIND       PRES   REMARKS
CLE-HOPKINS    CLOUDY    30  20  66 S9        30.12S WCI  22
CLE-LAKEFRONT  CLOUDY    31  19  61 S12G21    30.10S WCI  22
CUY CO. ARPT   NOT AVBL
LORAIN-ELYRIA  CLOUDY    29  20  69 S9        30.09S WCI  20
ASHTABULA      CLOUDY    27  20  75 S9        30.13F WCI  18
AKRON-CANTON   CLOUDY    30  20  66 S8        30.10S WCI  22
WOOSTER        CLOUDY    29  21  72 S8        30.10R WCI  21
MANSFIELD      CLOUDY    30  20  66 S12       30.06S WCI  20
YOUNGSTOWN     CLOUDY    27  20  75 SE9       30.12F WCI  18
$$

OHZ042-051>053-060>062-070>072-077>081-290900-
  SOUTHWEST OHIO

CITY           SKY/WX    TMP DP  RH WIND       PRES   REMARKS
CINC-COVINGTON CLOUDY    35  19  52 S9        30.07R WCI  28
CINC-LUNKEN    CLOUDY    34  20  56 S9        30.11R WCI  27
HAMILTON       CLOUDY    35  20  54 SE3       30.08S
DAYTON         MOCLDY    33  19  56 S13       30.05R WCI  24
WRIGHT-PAT AFB PTCLDY    31  20  62 S7        30.06R WCI  25
DAYTON GENERAL MOCLDY    34  20  56 S10       30.06R WCI  26
WILMINGTON     CLOUDY    34  19  54 S8        30.08R WCI  27
$$

OHZ036-037-039>041-045>050-054>059-063>069-073>076-082>088-290900-
  CENTRAL AND SOUTHEAST OHIO

CITY           SKY/WX    TMP DP  RH WIND       PRES   REMARKS
COLUMBUS       CLOUDY    32  18  56 SE6       30.10R WCI  26
OSU AIRPORT    CLOUDY    31  19  61 SE10      30.07F WCI  22
BOLTON FIELD   CLOUDY    30  22  70 SE8       30.09S WCI  22
RICKENBACK AFB CLOUDY    31  20  64 CALM      30.11R
NEWARK         CLOUDY    31  20  63 S5        30.11R WCI  26
MARION         CLOUDY    32  20  61 S14       30.06S WCI  22
LANCASTER      CLOUDY    31  20  63 SE7       30.11R WCI  24
ZANESVILLE     CLOUDY    29  20  69 S9        30.12F WCI  20
NEW PHILLY     CLOUDY    31  21  66 SE8       30.14F WCI  23
$$


USA.gov is the U.S. government's official web portal to all federal, state and local government web resources and services.